AMC-21 (33275 NORAD) Tracking and Keplerian Element Data

This shows tracking and keplerian element data for the satellite.

Feedback or suggestion? Click here.




ElementValue
Catalog33275
NameAMC-21
Epoch Orbit6049
Epoch Day34.73022869
Epoch Year2025
RAAN86.7874
Inclination1.6581
Eccentricity0.0003138
Argument of Perigee236.9904
Mean Anonmoly308.3221
Mean Motion1.00271797
Decay Rate4E-07
L11 33275U 08038B 25034.73022869 .00000040 00000+0 00000+0 0 9992
L22 33275 1.6581 86.7874 0003138 236.9904 308.3221 1.00271797 60493



Live tracking and technical data element details for AMC-21 (NORAD 33275). AMC-21 can be tracked NOW for your location showing map with azimuth and elevation plus other details from your city location.







IsCatalogInMostPopularTable: catalog: 33275, numindb: 333
Update: records affected: 1



GetName: 33275 AMC-21

Hit Count: updated at: Sat, 24 May 2025 17:08:35 GMT